COSMOS 1975

Last updated on Wed Jul 09 2025 00:02:13 GMT+0000 (Coordinated Universal Time)

1 19573U 88093A 25189.53129487 .00004123 00000+0 17225-3 0 9996 2 19573 82.5220 1.7787 0011810 316.6725 43.3582 15.23291015982178
UTC large
Height (km)
Speed (km/s)
/
Latitude / Longitude
Inclination (degrees)
Orbital Period (minutes)
Azimuth
Elevation
Range (km)
Doppler Factor

Next 0 passes for location: London (51.5072 / 0.1276)

Sorry there are no passes over London.